Home   Weather   Washington DC   Past weeks

Flag for USA Past Weather in Washington DC, USA — Yesterday and Last 2 Weeks

Now
60 °F

Passing clouds.


Feels Like: 60 °F
Forecast: 58 / 83 °F
Wind: No wind

Location: Reagan National Airport

Current Time: Apr 27, 2017 at 3:22:20 am

Latest Report: Apr 27, 2017 at 2:52 am


Visibility: 10 mi

Pressure: 29.82 "Hg

Humidity: 93%

Dew Point: 58 °F

Location of Washington DCLocation

Past Weather in Washington DC — Graph

°F

Washington DC Temperature Yesterday

Maximum temperature yesterday: 71 °F (at 5:52 pm)
Minimum temperature yesterday: 58 °F (at 5:52 am)
Average temperature yesterday: 63 °F

High & Low Weather Summary for the Past Weeks

 TemperatureHumidityPressure
High88 °F (Apr 16, 2:52 pm)100% (Apr 25, 7:52 am)30.45 "Hg (Apr 25, 7:52 am)
Low49 °F (Apr 23, 6:52 am)23% (Apr 13, 1:52 pm)29.70 "Hg (Apr 26, 2:52 am)
Average63 °F71%30.07 "Hg
* Reported Apr 12 1:52 am — Apr 27 1:52 am, Washington DC, Weather by CustomWeather, © 2017

Note: Actual official high and low records may vary slightly from our data, if they occured in-between our weather recording intervals... More about our weather records

Advertising

Washington DC Weather History for the Previous 24 Hours

Scroll right to see more
 ConditionsComfort  
Time TempWeatherWind HumidityBarometerVisibility
1:52 am
Thu, Apr 27
61 °FPassing clouds.No wind90%29.83 "Hg10 mi
12:52 am61 °FClear.No wind90%29.85 "Hg10 mi
11:52 pm
Wed, Apr 26
61 °FClear.3 mph90%29.84 "Hg10 mi
10:52 pm62 °FClear.3 mph90%29.84 "Hg10 mi
9:52 pm63 °FPassing clouds.3 mph87%29.83 "Hg10 mi
8:52 pm64 °FPassing clouds.5 mph87%29.81 "Hg10 mi
7:52 pm67 °FPartly sunny.7 mph76%29.80 "Hg10 mi
6:52 pm69 °FBroken clouds.7 mph73%29.78 "Hg10 mi
5:52 pm71 °FPartly sunny.7 mph68%29.77 "Hg10 mi
4:52 pm70 °FPartly sunny.6 mph68%29.77 "Hg10 mi
3:52 pm69 °FMore clouds than sun.6 mph68%29.78 "Hg10 mi
2:52 pm68 °FOvercast.6 mph70%29.78 "Hg10 mi
1:52 pm68 °FOvercast.7 mph70%29.78 "Hg10 mi
12:52 pm66 °FOvercast.8 mph73%29.78 "Hg10 mi
11:52 am66 °FOvercast.6 mph75%29.79 "Hg10 mi
10:52 am63 °FMostly cloudy.10 mph81%29.80 "Hg10 mi
9:52 am60 °FOvercast.9 mph90%29.78 "Hg10 mi
8:52 am60 °FOvercast.9 mph90%29.77 "Hg10 mi
8:02 am59 °FLow clouds.10 mph93%29.76 "Hg7 mi
6:52 am59 °FOvercast.9 mph93%29.73 "Hg7 mi
5:52 am58 °FMostly cloudy.8 mph97%29.71 "Hg10 mi
5:36 am59 °FMostly cloudy.9 mph96%29.71 "Hg10 mi
4:52 am59 °FLight rain. Fog.9 mph96%29.71 "Hg6 mi
4:34 am59 °FLight rain. Low clouds.10 mph96%29.71 "Hg10 mi
3:52 am59 °FFog.9 mph96%29.70 "Hg5 mi
3:19 am59 °FLow clouds.13 mph96%29.70 "Hg10 mi
Weather by CustomWeather, © 2017

See weather overviewHow to use our weather pages